DECAYED

CZ-6A DEB, 61465 (Decayed)

Orbit data source: Space-Track

CZ-6A DEB, 61465 was space debris in LEO originally from a launch on Tue, 06 Aug 2024 UTC launched from the Taiyaun Space Center, China (TSC). Debris objects in space refer to the collection of defunct objects orbiting the Earth. Examples of debris include non-operational satellites, rocket bodies, and fragments generated from explosions, collisions, or faulty payload assembly.

Not visible in the next 10 days
Identifier
61465, 2024-140ZX
Orbit
Decayed
Country
Flag of CNCN / PRC
Related business
Manufacturer
SAST
Mission
Decayed spacecraft
Bus & Motor
Unknown
Mass
Unknown
Launch date (UTC)
2024-08-06 (2 years ago)
Launch vehicle
Unknown
Launch site
Taiyaun Space Center, China (TSC)
Object type
Payload
Rocket body
Debris
Shape & HBR
Unknown shape, 1.1 m
Radar Cross Section
Medium (>0.1 m² and <1 m²)

Expand to show TLE details & history
Last TLE update: 1 year ago

TLE from 1 year ago
0 CZ-6A DEB
1 61465U 24140ZX  25097.59735594  .07956158  00000-0  26520-1 0  9990
2 61465  88.9289 318.7784 0018551 257.9495 101.9707 15.85222242 30132
Epoch: 2025-04-07T14:20Z
TLE epoch observation values (Epoch: 2025-04-07T14:20:11.553Z)
Latitude
Longitude
-92.38024°
Altitude
321.583 km
Speed
7.714 km/s
True Right ascension
21h 15m 06s
True Declination
0° 00' 00"
Sunlit
Object was in daylight at epoch
Visualization orbit readout
Latitude
Unknown
Longitude
Unknown
Altitude
Unknown
Speed
Unknown
Apparent Right ascension
Unknown
Apparent Declination
Unknown
Sunlit
N/A
Visualization observer readout
Local Sidereal Time
10:19:45
Azimuth
Unknown
Elevation
Unknown
Doppler factor
Unknown
Orbital elements
Apogee altitude
324.83 km
Perigee altitude
300.006 km
Semi-major axis
6,690.555 km
Eccentricity
0.00186
Inclination
88.9289°
RAAN
318.7784°
Arg. of periapsis
257.9495°
True anomaly
102.17856°
Mean anomaly
101.9707°
Eccentric anomaly
102.07464°
Mean motion
3.96597 °/min
Orbital period
90.77 mins
BSTAR
0.02652
Loading maneuver chart data...
Computing Atmospheric mass density...
Loading historical data...
Loading historical data...
Loading historical data...
Loading historical data...
Loading historical data...
Loading historical data...
Loading historical data...

Documentation

Showing up to 5 results
|